Retour au catalogue

FENGYUN 1C DEB

ActifSSO
NORAD 31755·DEBRIS·🇨🇳 China

Lancé May 10, 1999 depuis Taiyuan Satellite Launch Center

Loading…

Prochains Passages (prochaines 24 heures)

TLE

FraisSource: Space-Track

Époque: Sep 14, 2026, 04:11 UTC

1 31755U 99025CFE 26257.17442221  .00000392  00000-0  21589-3 0  9993
2 31755  98.8036 247.4342 0187836 324.9992  95.0588 14.08640093675495

Suivez FENGYUN 1C DEB en temps réel avec AllMySat

Download on the App Store